Senin
| Ora | Descriere | Temp | Se simte | Precipitatii | Umiditate | Vant |
|---|---|---|---|---|---|---|
| 00:00 | Patchy rain nearby | 13.8° | 13° | 80% | 66% | S 11.2 KM/H |
| 01:00 | Senin | 13.1° | 12.3° | 0% | 69% | S 10.4 KM/H |
| 02:00 | Senin | 12.6° | 12.2° | 0% | 71% | SSE 7.2 KM/H |
| 03:00 | Senin | 12.1° | 12.2° | 0% | 73% | ESE 4.7 KM/H |
| 04:00 | Senin | 11.6° | 11.5° | 0% | 74% | ESE 5.4 KM/H |
| 05:00 | Senin | 11.4° | 11.3° | 0% | 75% | ESE 5 KM/H |
| 06:00 | Senin | 9.2° | 10.9° | 0% | 87% | ESE 5.8 KM/H |
| 07:00 | Senin | 12.2° | 11.7° | 0% | 75% | ESE 7.2 KM/H |
| 08:00 | Senin | 14.3° | 14° | 0% | 69% | SE 8.6 KM/H |
| 09:00 | Senin | 16.8° | 16.8° | 0% | 60% | SE 9 KM/H |
| 10:00 | Senin | 18.9° | 19° | 0% | 54% | SE 8.3 KM/H |
| 11:00 | Senin | 20.5° | 20.6° | 0% | 49% | SE 9 KM/H |
| 12:00 | Senin | 21.8° | 21.8° | 0% | 47% | ESE 10.1 KM/H |
| 13:00 | Senin | 22.5° | 24.5° | 0% | 46% | ESE 10.8 KM/H |
| 14:00 | Senin | 23.1° | 24.6° | 0% | 45% | ESE 10.4 KM/H |
| 15:00 | 23.4° | 24.7° | 0% | 45% | ESE 10.1 KM/H | |
| 16:00 | 23.5° | 24.8° | 0% | 46% | ESE 10.4 KM/H | |
| 17:00 | Innorat | 23.3° | 24.8° | 0% | 47% | ESE 11.2 KM/H |
| 18:00 | Innorat | 22.5° | 24.7° | 0% | 55% | SE 12.6 KM/H |
| 19:00 | Senin | 20.3° | 20.3° | 0% | 66% | SE 15.1 KM/H |
| 20:00 | Senin | 17.5° | 17.5° | 0% | 73% | SE 18 KM/H |
| 21:00 | Senin | 15.3° | 15.3° | 0% | 74% | SE 18.7 KM/H |
| 22:00 | Senin | 14.1° | 12.8° | 0% | 73% | SE 17.6 KM/H |
| 23:00 | Senin | 13.3° | 11.9° | 0% | 74% | SE 15.8 KM/H |